Location: Arbon
(43.0005°N, 0.7472°E)
Time: 23:30:47
(UTC+00:00)

Vanguard 2 - Visible Passes

Search period start: 05 December 2020 00:00
Search period end: 15 December 2020 00:00
Orbit: 554 x 2937 km, 32.9° (Epoch: 05 December)

Date Brightness Start Highest point End Pass type
(mag) Time Alt. Az. Time Alt. Az. Time Alt. Az.
05 Dec 11.2 05:44:45 10° SSW 05:51:56 18° SSE 05:57:23 10° ESE visible
06 Dec 10.9 06:00:58 10° SSW 06:09:45 24° SSE 06:15:58 10° ESE visible
07 Dec 11.5 04:11:24 10° S 04:17:57 15° SSE 04:23:23 10° ESE visible
07 Dec 10.6 06:17:44 10° SW 06:27:33 29° SSE 06:34:09 10° ESE visible
08 Dec 11.2 04:26:31 10° SSW 04:35:45 20° SSE 04:42:48 10° ESE visible
08 Dec 10.4 06:34:51 10° SW 06:45:20 35° S 06:52:08 10° ESE visible
09 Dec 11.0 04:42:34 10° SSW 04:53:32 26° SSE 05:01:25 10° ESE visible
10 Dec 11.6 02:53:33 10° S 03:01:17 15° SSE 03:07:52 10° ESE visible
10 Dec 10.7 04:59:11 10° SW 05:11:19 32° SSE 05:19:40 10° ESE visible
11 Dec 11.3 03:08:22 10° S 03:18:59 21° SSE 03:27:29 10° ESE visible
11 Dec 10.5 05:16:11 10° SW 05:29:07 38° SSE 05:37:42 10° ESE visible
12 Dec 11.1 03:25:58 13° SSW 03:36:42 27° SSE 03:46:15 10° ESE visible
12 Dec 10.3 05:33:28 10° SW 05:46:54 43° S 05:55:35 10° ESE visible
13 Dec 11.6 01:42:36 14° SSE 01:44:09 15° SE 01:51:07 10° ESE visible
13 Dec 10.9 03:44:07 17° SSW 03:54:26 33° SSE 04:04:37 10° E visible
13 Dec 10.2 05:50:59 10° WSW 06:04:41 47° S 06:13:23 10° ESE visible
14 Dec 11.4 02:00:26 20° SSE 02:01:44 20° SE 02:11:15 10° ESE visible
14 Dec 10.6 04:01:55 20° SSW 04:12:11 39° SSE 04:22:44 10° E visible
14 Dec 10.1 06:08:40 10° WSW 06:22:28 50° S 06:31:07 10° ESE visible
